Roswell, NM

5:26 AM MDT on April 23, 2017 (GMT -0600)
Roswell Industrial

Weather History for KROW - August, 2013

Change the Weather History Date:

Wednesday, August 28, 2013

  Actual Average Record
Temperature  
Mean Temperature 78 °F 77 °F  
Max Temperature 91 °F 91 °F 102 °F (2011)
Min Temperature 65 °F 64 °F 55 °F (1970)
Degree Days  
Heating Degree Days 0 0  
Month to date heating degree days 0 0  
Since 1 June heating degree days 0 1  
Since 1 July heating degree days 0 0  
Cooling Degree Days 13 12  
Month to date cooling degree days 469 391  
Year to date cooling degree days 1809 1489  
Since 1 June cooling degree days 1486 1264  
Growing Degree Days 28 (Base 50)    
Moisture  
Dew Point 59 °F    
Average Humidity 58    
Maximum Humidity 84    
Minimum Humidity 32    
Precipitation  
Precipitation 0.00 in 0.07 in 0.91 in (1996)
Month to date precipitation 0.76 1.81  
Year to date precipitation 4.60 8.77  
Sea Level Pressure  
Sea Level Pressure 29.93 in    
Wind  
Wind Speed 7 mph (SSE)    
Max Wind Speed 16 mph    
Max Gust Speed 28 mph    
Visibility 10 miles    
Events      
T = Trace of Precipitation, MM = Missing Value Source: NWS Daily Summary

Daily Weather History Graph

Daily Weather History Graph

Search for Another Location

Airport or City:

Trip Planner

Search our weather history database for the weather conditions in past years. The results will help you decide how hot, cold, wet, or windy it might be!

Date:

Astronomy

Aug. 28, 2013 Rise Set
Actual Time 6:29 AM MDT 7:28 PM MDT
Civil Twilight 6:04 AM MDT 7:53 PM MDT
Nautical Twilight 5:34 AM MDT 8:23 PM MDT
Astronomical Twilight 5:03 AM MDT 8:54 PM MDT
Moon No Moon Rise 1:59 PM MDT (8/28)
Length of Visible Light 13h 49m
Length of Day
12h 58m
Waning Gibbous, 47% of the Moon is Illuminated
Aug 28
Waning Gibbous
Sep 5
New
Sep 12
First Quarter
Sep 19
Full
Sep 26
Last Quarter

Hourly Weather History & Observations

Time (MDT) Temp. Heat Index Dew Point Humidity Pressure Visibility Wind Dir Wind Speed Gust Speed Precip Events Conditions
12:51 AM 72.0 °F - 54.0 °F 53% 29.91 in 10.0 mi South 5.8 mph - N/A   Clear
1:51 AM 70.0 °F - 55.9 °F 61% 29.90 in 10.0 mi South 5.8 mph - N/A   Clear
2:51 AM 69.1 °F - 57.0 °F 65% 29.90 in 10.0 mi SSE 4.6 mph - N/A   Clear
3:51 AM 69.1 °F - 59.0 °F 70% 29.90 in 10.0 mi SSE 6.9 mph - N/A   Clear
4:51 AM 68.0 °F - 59.0 °F 73% 29.92 in 10.0 mi SSE 5.8 mph - N/A   Clear
5:51 AM 64.9 °F - 59.0 °F 81% 29.93 in 10.0 mi SSW 4.6 mph - N/A   Clear
6:51 AM 66.9 °F - 59.0 °F 76% 29.95 in 10.0 mi South 4.6 mph - N/A   Clear
7:51 AM 70.0 °F - 61.0 °F 73% 29.98 in 10.0 mi SSE 9.2 mph - N/A   Clear
8:51 AM 72.0 °F - 63.0 °F 73% 29.99 in 10.0 mi South 9.2 mph - N/A   Clear
9:51 AM 75.9 °F - 63.0 °F 64% 29.99 in 10.0 mi SSE 6.9 mph - N/A   Clear
10:51 AM 78.1 °F - 63.0 °F 60% 29.99 in 10.0 mi Variable 5.8 mph - N/A   Clear
11:51 AM 82.0 °F 82.7 °F 61.0 °F 49% 29.96 in 10.0 mi SE 4.6 mph - N/A   Clear
12:51 PM 84.0 °F 84.4 °F 61.0 °F 46% 29.95 in 10.0 mi South 6.9 mph - N/A   Scattered Clouds
1:51 PM 87.1 °F 86.7 °F 60.1 °F 40% 29.93 in 10.0 mi Variable 4.6 mph - N/A   Partly Cloudy
2:51 PM 89.1 °F 88.2 °F 59.0 °F 36% 29.91 in 10.0 mi SSE 11.5 mph 17.3 mph N/A   Mostly Cloudy
3:51 PM 89.1 °F 88.0 °F 57.9 °F 35% 29.89 in 10.0 mi SE 12.7 mph - N/A   Partly Cloudy
4:51 PM 90.0 °F 88.1 °F 55.9 °F 31% 29.88 in 10.0 mi SE 10.4 mph 18.4 mph N/A   Clear
5:51 PM 88.0 °F 86.1 °F 55.0 °F 32% 29.89 in 10.0 mi SSE 12.7 mph - N/A   Clear
6:51 PM 86.0 °F 84.5 °F 55.0 °F 35% 29.89 in 10.0 mi SE 8.1 mph - N/A   Clear
7:51 PM 84.0 °F 83.0 °F 55.9 °F 38% 29.90 in 10.0 mi SSE 3.5 mph - N/A   Clear
8:51 PM 82.0 °F 82.0 °F 57.9 °F 44% 29.93 in 10.0 mi SSE 6.9 mph - N/A   Clear
9:51 PM 81.0 °F 81.1 °F 57.9 °F 45% 29.94 in 10.0 mi SE 6.9 mph - N/A   Clear
10:51 PM 78.1 °F - 59.0 °F 52% 29.95 in 10.0 mi SSE 4.6 mph - N/A   Clear
11:51 PM 77.0 °F - 59.0 °F 54% 29.96 in 10.0 mi SE 8.1 mph - N/A   Clear